Weather History for Louisville, KY

Change the Weather History Date:

Friday, February 1, 2013

  Actual Average Record
Temperature  
Mean Temperature 15 °F 36 °F  
Max Temperature 21 °F 44 °F 71 °F (1911)
Min Temperature 9 °F 27 °F -2 °F (1951)
Degree Days  
Heating Degree Days 50 29  
Month to date heating degree days 50 29  
Since 1 July heating degree days 2372 2538  
Cooling Degree Days 0 0  
Month to date cooling degree days 0 0  
Year to date cooling degree days 0 0  
Moisture  
Dew Point 4 °F    
Average Humidity 60    
Maximum Humidity 69    
Minimum Humidity 51    
Precipitation  
Precipitation T in 0.12 in 1.44 in (1981)
Month to date precipitation T 0.12  
Year to date precipitation 5.10 3.36  
Snow  
Snow T in 0.20 in 11.00 in (1966)
Month to date snowfall T 0.2  
Since 1 July snowfall 4.9 6.7  
Snow Depth 2.00 in    
Sea Level Pressure  
Sea Level Pressure 30.42 in    
Wind  
Wind Speed 9 mph (West)    
Max Wind Speed 30 mph    
Max Gust Speed 36 mph    
Visibility 10 miles    
Events Snow    
T = Trace of Precipitation, MM = Missing Value Source: NWS Daily Summary

Daily Weather History Graph

Daily Weather History Graph

Search for Another Location

Airport:

Trip Planner

Search our weather history database for the weather conditions in past years. The results will help you decide how hot, cold, wet, or windy it might be!

Date:

Astronomy

Feb. 01, 2013 Rise Set
Actual Time 7:47 AM EST 6:06 PM EST
Civil Twilight 7:19 AM EST 6:33 PM EST
Nautical Twilight 6:48 AM EST 7:05 PM EST
Astronomical Twilight 6:17 AM EST 7:36 PM EST
Moon No Moon Rise 10:26 AM EST (2/1)
Length of Visible Light 11h 14m
Length of Day
10h 18m
Waning Gibbous, 70% of the Moon is Illuminated
Feb 1
Waning Gibbous
Feb 3
Last Quarter
Feb 10
New
Feb 17
First Quarter
Feb 25
Full

Hourly Weather History & Observations

Time (EST) Temp. Windchill Dew Point Humidity Pressure Visibility Wind Dir Wind Speed Gust Speed Precip Events Conditions
1:56 AM 15.1 °F -0.6 °F 1.9 °F 56% 30.27 in 10.0 mi NW 16.1 mph 32.2 mph 0.00 in   Scattered Clouds
2:56 AM 14.0 °F -1.4 °F 1.9 °F 59% 30.30 in 10.0 mi WNW 15.0 mph 21.9 mph N/A   Overcast
3:56 AM 12.9 °F -3.9 °F 1.9 °F 62% 30.34 in 10.0 mi West 17.3 mph 28.8 mph N/A   Overcast
4:56 AM 10.9 °F -5.4 °F -0.9 °F 59% 30.35 in 10.0 mi NW 15.0 mph 21.9 mph N/A   Mostly Cloudy
5:56 AM 10.9 °F -3.4 °F -0.9 °F 59% 30.39 in 10.0 mi WNW 11.5 mph - N/A   Scattered Clouds
6:56 AM 10.0 °F -4.5 °F -0.0 °F 64% 30.41 in 10.0 mi WNW 11.5 mph - N/A   Scattered Clouds
7:56 AM 9.0 °F -3.2 °F -0.0 °F 67% 30.43 in 10.0 mi WNW 8.1 mph - N/A   Partly Cloudy
8:56 AM 10.4 °F -3.3 °F 1.4 °F 67% 30.43 in 10.0 mi WNW 10.4 mph - N/A   Partly Cloudy
9:49 AM 12.2 °F 0.7 °F 3.2 °F 67% 30.46 in 10.0 mi West 8.1 mph - N/A   Mostly Cloudy
9:56 AM 12.0 °F -0.4 °F 3.9 °F 70% 30.49 in 10.0 mi West 9.2 mph 17.3 mph N/A   Mostly Cloudy
10:37 AM 14.0 °F 2.0 °F 3.2 °F 62% 30.47 in 10.0 mi West 9.2 mph - N/A   Partly Cloudy
10:56 AM 14.0 °F 8.2 °F 3.0 °F 62% 30.50 in 10.0 mi Variable 3.5 mph - N/A   Partly Cloudy
11:56 AM 15.1 °F 1.8 °F 3.0 °F 59% 30.52 in 10.0 mi WSW 11.5 mph - N/A   Partly Cloudy
12:56 PM 18.0 °F 5.4 °F 5.0 °F 57% 30.50 in 10.0 mi West 11.5 mph - N/A   Scattered Clouds
1:56 PM 19.0 °F 8.2 °F 5.0 °F 54% 30.47 in 10.0 mi West 9.2 mph - N/A   Partly Cloudy
2:56 PM 19.9 °F 8.6 °F 6.1 °F 55% 30.46 in 10.0 mi West 10.4 mph - N/A   Partly Cloudy
3:56 PM 19.9 °F 13.4 °F 6.1 °F 55% 30.44 in 10.0 mi South 4.6 mph - N/A   Partly Cloudy
4:56 PM 21.0 °F 12.4 °F 7.0 °F 55% 30.44 in 10.0 mi WSW 6.9 mph - N/A   Partly Cloudy
5:56 PM 19.4 °F 9.5 °F 6.8 °F 58% 30.41 in 10.0 mi WSW 8.1 mph - N/A   Partly Cloudy
6:56 PM 19.0 °F 11.1 °F 7.0 °F 59% 30.43 in 10.0 mi West 5.8 mph - N/A   Clear
7:56 PM 19.0 °F 12.3 °F 7.0 °F 59% 30.44 in 10.0 mi WSW 4.6 mph - N/A   Scattered Clouds
8:56 PM 19.0 °F 12.3 °F 7.0 °F 59% 30.42 in 10.0 mi SW 4.6 mph - N/A   Scattered Clouds
9:56 PM 19.9 °F - 8.1 °F 60% 30.41 in 10.0 mi Calm Calm - N/A   Overcast
10:56 PM 19.0 °F - 10.0 °F 68% 30.38 in 10.0 mi Calm Calm - N/A   Mostly Cloudy
11:56 PM 19.9 °F 12.1 °F 9.0 °F 62% 30.38 in 10.0 mi SSE 5.8 mph - N/A   Overcast